Regional Weather Roundup
Issued by NWS

Home | Current Version | Previous Version | Text Only | Print | Product List | Glossary On
Versions: 1 2 3 4 5 6 7 8 9 10 11 12 13 14 15 16 17 18 19 20 21 22 23 24 25 26 27 28 29 30 31 32 33 34 35 36 37 38 39 40 41 42 43 44 45 46 47 48 49 50
889
ASUS45 KCYS 281910
RWRWY

WYOMING REGIONAL WEATHER ROUNDUP
NATIONAL WEATHER SERVICE CHEYENNE WY
100 PM MDT TUE MAR 28 2017

NOTE:  "FAIR" INDICATES FEW OR NO CLOUDS BELOW 12,000 FEET
WITH NO SIGNIFICANT WEATHER AND/OR OBSTRUCTIONS TO VISIBILITY.

WYZ001-282000-
YELLOWSTONE NATIONAL PARK

CITY           SKY/WX    TMP DP  RH WIND       PRES   REMARKS
LK YELLOWSTONE   N/A     33  20  58 VRB3      30.13F
W YELLOWSTONE  NOT AVBL

$$
WYZ002>013-054>058-071-098>099-282000-
NORTHERN WYOMING

CITY           SKY/WX    TMP DP  RH WIND       PRES   REMARKS
JACKSON        MOSUNNY   41  23  48 N8        30.11S
CODY           FAIR      44  30  57 NE12      30.13S
GREYBULL       FAIR      51  31  46 N25G32    30.08F
WORLAND        CLOUDY    45  38  76 N9G18     30.10F
SHERIDAN       LGT RAIN  42  37  82 N10       30.14S
BUFFALO        CLOUDY    42  34  73 N26G37    30.09F
GILLETTE       CLOUDY    43  37  79 NW22      30.06S
HULETT         CLOUDY    52  37  58 N12       30.03S
NEWCASTLE      LGT RAIN  45  37  76 CALM      30.02F

$$
WYZ014>020-022>026-101>103-282000-
CENTRAL WYOMING

CITY           SKY/WX    TMP DP  RH WIND       PRES   REMARKS
BIG PINEY      FAIR      45  19  35 N21G26    30.06S
PINEDALE       FAIR      41  25  52 NW17      30.06S
DUBOIS         FAIR      43  30  61 S7        30.05F
LANDER         LGT RAIN  39  36  89 NE9       30.08F WCI  33
RIVERTON       PTSUNNY   45  32  60 N18       30.08F
CASPER         CLOUDY    40  35  83 N24G30    30.04S WCI  29
DOUGLAS        LGT RAIN  40  37  89 N13       30.03R WCI  32

$$
WYZ021-027>030-104>119-282000-
SOUTHERN WYOMING

CITY           SKY/WX    TMP DP  RH WIND       PRES   REMARKS
EVANSTON       FAIR      39  26  59 N21       30.09F WCI  29
KEMMERER         N/A     37  28  70 NW10      30.08F WCI  30
FORT BRIDGER   CLOUDY    41  30  65 NW6       30.11S
ROCK SPRINGS   LGT SNOW  35  32  88 NW7       30.07S VSB 1   WCI  29
DIXON            N/A     47  32  57 N18G24    29.97S
RAWLINS        CLOUDY    40  33  76 N22G28    30.00S WCI  30
SARATOGA       DRIZZLE   37  37 100 N14G21    29.98S WCI  29
LARAMIE        LGT RAIN  36  34  92 N18       29.92F WCI  26
CHEYENNE       LGT RAIN  40  38  93 N17G26    29.90S WCI  31
TORRINGTON     LGT RAIN  45  43  93 E20       29.92F
PINE BLUFFS    CLOUDY    43  43 100 NE7       29.90F

$$




USA.gov is the U.S. government's official web portal to all federal, state and local government web resources and services.